Weather in Kalyazin

Russia / Tver Oblast     57°14′25″N   37°51′18″E
temp.,
°C
wind,
m/s
gust,
m/s
humid.,
%
clouds,
%
prec.,
mm/h
press.,
hPa
HPBL,
m
3 march, wed
wed300:00−5nnw5138565 0.3 1011422
03:00−6nw5129032 0.3 1013346
06:00−8wnw512910 0.0 1014298
09:00−5wnw5139414 0.0 1014558
12:000wnw6108796 0.1 10121042
15:000wnw6108898 0.1 10111015
18:00−1w61290100 0.1 1008774
21:00−1w61391100 0.1 1006775
4 march, thu
thu400:00−1wsw71394100 0.1 1002641
03:00+1w61298100 1.0 999578
06:00−1wnw61388100 1.5 998644
09:00−3wnw6148585 1.5 999711
12:00−3nw610884 0.0 1000674
15:00−3nw588649 0.0 1000780
18:00−4nnw3788100 0.1 1001331
21:00−8nnw338683 0.1 100227
5 march, fri
fri500:00−11nnw23910 0.0 100321
03:00−12nnw12940 0.0 100421
06:00−12wnw119559 0.0 100521
09:00−9wsw129580 0.2 1006111
12:00−5wnw3590100 0.2 1007596
15:00−5nw468498 0.4 1008770
18:00−7wnw378894 0.1 1009175
21:00−11nw348966 0.1 101250
6 march, sat
sat600:00−12nw349527 0.0 101365
03:00−13nnw359660 0.1 1015121
06:00−17nnw348969 0.0 101660
09:00−16nw359434 0.0 1016174
12:00−9w368251 0.0 1016582
15:00−7w478375 0.1 1014934
18:00−9wsw348696 0.1 101259
21:00−10sw498972 0.1 1010182
7 march, sun
sun700:00−8ssw6138696 0.0 1006619
03:00−7ssw8159498 0.8 1001929
06:00−5sw81594100 1.4 994937
09:00−3sw91594100 2.9 9901090
12:00−7nw61194100 1.8 990627
15:00−5wsw597985 2.1 9901201
18:00−8wsw497585 0.5 991178
21:00−6sw8167892 0.5 990993